Location: Coffee Ditch
(40.9640°N, 122.7500°W)
Time: 07:29:38
(UTC+00:00)

Cosmos 1602 Rocket - Pass Details

Date: 08 September 2024
Orbit: 600 x 627 km, 82.5° (Epoch: 05 October)

Event Time Altitude Azimuth Distance (km) Brightness Sun altitude
Rises 12:52:19 0° 344° (NNW) 2,926 7.0 -10.6°
Reaches altitude 10° 12:54:40 10° 337° (NNW) 2,014 6.1 -10.2°
Maximum altitude 12:58:50 40° 268° (W) 931 4.0 -9.4°
Drops below altitude 10° 13:02:57 10° 199° (SSW) 1,992 5.8 -8.7°
Sets 13:05:16 0° 192° (SSW) 2,890 6.7 -8.2°
